This is the latest recevied weather packets stored in our database for station/object N8XHB. If no packets are shown the sender has not sent any weather packets the latest 10 day(s).
| Time | Temp. | Humidity | Pressure | Rain* | Wind** | Luminosity | Snow |
|---|---|---|---|---|---|---|---|
| 1776974186 | 26.11° C | 50% | 1011.1 hPa | 0 mm | - | 119 W/m² | - |
| 1776973884 | 26.11° C | 50% | 1011.2 hPa | 0 mm | - | 118 W/m² | - |
| 1776973581 | 26.11° C | 49% | 1011 hPa | 0 mm | - | 111 W/m² | - |
| 1776973278 | 26.11° C | 49% | 1010.8 hPa | 0 mm | - | 109 W/m² | - |
| 1776972976 | 26.11° C | 49% | 1011.2 hPa | 0 mm | - | 113 W/m² | - |
| 1776972672 | 26.11° C | 51% | 1011.2 hPa | 0 mm | - | 663 W/m² | - |
| 1776972370 | 26.11° C | 49% | 1011.3 hPa | 0 mm | - | 717 W/m² | - |
| 1776972066 | 26.67° C | 50% | 1011.4 hPa | 0 mm | - | 732 W/m² | - |
| 1776971761 | 26.67° C | 50% | 1011.5 hPa | 0 mm | - | 707 W/m² | - |
| 1776971458 | 26.67° C | 49% | 1011.7 hPa | 0 mm | - | 798 W/m² | - |
| 1776971155 | 26.67° C | 49% | 1011.7 hPa | 0 mm | - | 791 W/m² | - |
| 1776970852 | 26.67° C | 49% | 1011.7 hPa | 0 mm | - | 801 W/m² | - |
| 1776970550 | 26.67° C | 48% | 1011.7 hPa | 0 mm | - | 814 W/m² | - |
| 1776970246 | 26.67° C | 50% | 1011.9 hPa | 0 mm | - | 832 W/m² | - |
| 1776969943 | 26.67° C | 49% | 1011.9 hPa | 0 mm | - | 846 W/m² | - |
| 1776969640 | 26.67° C | 49% | 1011.8 hPa | 0 mm | - | 850 W/m² | - |
| 1776969337 | 26.67° C | 51% | 1012.2 hPa | 0 mm | - | 877 W/m² | - |
| 1776969033 | 26.11° C | 53% | 1012 hPa | 0 mm | - | 884 W/m² | - |
| 1776968732 | 26.11° C | 55% | 1012.1 hPa | 0 mm | - | 619 W/m² | - |
| 1776968429 | 26.67° C | 51% | 1012 hPa | 0 mm | - | 888 W/m² | - |
| 1776968124 | 26.11° C | 51% | 1012.2 hPa | 0 mm | - | 899 W/m² | - |
| 1776967821 | 26.11° C | 50% | 1012.1 hPa | 0 mm | - | 862 W/m² | - |
| 1776967518 | 26.11° C | 51% | 1012.1 hPa | 0 mm | - | 273 W/m² | - |
* Rain latest hour (hover to see other rain measurements)
** Current wind speed in m/s (hover to see current wind gust speed)